Change the Weather History Date:

Saturday, July 6, 2013

  Actual Average Record
Temperature  
Mean Temperature 83 °F 83 °F  
Max Temperature 93 °F 91 °F 101 °F (1914)
Min Temperature 72 °F 75 °F 65 °F (1968)
Degree Days  
Heating Degree Days 0 0  
Month to date heating degree days 0 0  
Since 1 June heating degree days 0 0  
Since 1 July heating degree days 0 0  
Cooling Degree Days 18 18  
Month to date cooling degree days 99 105  
Year to date cooling degree days 1129 1123  
Since 1 June cooling degree days 644 585  
Growing Degree Days 32 (Base 50)    
Moisture  
Dew Point 72 °F    
Average Humidity 71    
Maximum Humidity 93    
Minimum Humidity 49    
Precipitation  
Precipitation 0.00 in 0.21 in 3.36 in (2007)
Month to date precipitation 0.00 1.25  
Year to date precipitation 33.58 28.98  
Snow  
Snow 0.00 in 0.00 in 0.00 in ()
Month to date snowfall 0.0 0.0  
Since 1 June snowfall 0.0 0.0  
Since 1 July snowfall 0.0 0.0  
Snow Depth 0.00 in    
Sea Level Pressure  
Sea Level Pressure 29.96 in    
Wind  
Wind Speed 9 mph (East)    
Max Wind Speed 18 mph    
Max Gust Speed 23 mph    
Visibility 10 miles    
Events      
T = Trace of Precipitation, MM = Missing Value Source: NWS Daily Summary

Daily Weather History Graph

Daily Weather History Graph

Search for Another Location

Airport or City:

Trip Planner

Search our weather history database for the weather conditions in past years. The results will help you decide how hot, cold, wet, or windy it might be!

Date:

Astronomy

Jul. 06, 2013 Rise Set
Actual Time 6:17 AM CDT 8:17 PM CDT
Civil Twilight 5:50 AM CDT 8:45 PM CDT
Nautical Twilight 5:17 AM CDT 9:18 PM CDT
Astronomical Twilight 4:41 AM CDT 9:53 PM CDT
Moon 5:00 AM CDT (7/6) 7:03 PM CDT (7/6)
Length of Visible Light 14h 55m
Length of Day
14h 00m
Waning Crescent, 2% of the Moon is Illuminated
Jul 6
Waning Crescent
Jul 8
New
Jul 15
First Quarter
Jul 22
Full
Jul 29
Last Quarter

Hourly Weather History & Observations

Time (CDT) Temp. Heat Index Dew Point Humidity Pressure Visibility Wind Dir Wind Speed Gust Speed Precip Events Conditions
12:53 AM 75.0 °F - 72.0 °F 90% 29.98 in 10.0 mi ENE 4.6 mph - N/A   Clear
1:53 AM 75.0 °F - 71.1 °F 87% 29.97 in 10.0 mi East 6.9 mph - N/A   Clear
2:53 AM 73.9 °F - 70.0 °F 87% 29.97 in 10.0 mi ENE 6.9 mph - N/A   Clear
3:53 AM 73.0 °F - 70.0 °F 90% 29.97 in 10.0 mi ENE 5.8 mph - N/A   Clear
4:53 AM 72.0 °F - 70.0 °F 93% 29.96 in 10.0 mi East 5.8 mph - N/A   Clear
5:53 AM 72.0 °F - 69.1 °F 91% 29.97 in 10.0 mi NE 5.8 mph - N/A   Clear
6:53 AM 73.0 °F - 70.0 °F 90% 29.97 in 10.0 mi ENE 4.6 mph - N/A   Clear
7:53 AM 75.9 °F - 71.1 °F 85% 29.99 in 10.0 mi ENE 5.8 mph - N/A   Clear
8:53 AM 79.0 °F - 72.0 °F 79% 29.99 in 10.0 mi East 9.2 mph - N/A   Clear
9:53 AM 82.9 °F 88.8 °F 73.0 °F 72% 29.99 in 10.0 mi East 9.2 mph - N/A   Clear
10:53 AM 86.0 °F 93.0 °F 73.0 °F 65% 29.99 in 10.0 mi East 9.2 mph - N/A   Scattered Clouds
11:53 AM 87.1 °F 92.8 °F 71.1 °F 59% 29.99 in 10.0 mi East 10.4 mph - N/A   Partly Cloudy
12:53 PM 87.1 °F 92.8 °F 71.1 °F 59% 29.98 in 10.0 mi ESE 6.9 mph - N/A   Scattered Clouds
1:53 PM 90.0 °F 96.9 °F 72.0 °F 55% 29.96 in 10.0 mi North - - N/A   Partly Cloudy
2:53 PM 91.0 °F 95.6 °F 69.1 °F 48% 29.94 in 10.0 mi ESE 11.5 mph - N/A   Partly Cloudy
3:53 PM 91.0 °F 96.6 °F 70.0 °F 50% 29.93 in 10.0 mi ESE 11.5 mph - N/A   Mostly Cloudy
4:53 PM 89.1 °F 97.0 °F 73.0 °F 59% 29.92 in 10.0 mi ESE 11.5 mph - 0.01 in   Partly Cloudy
5:53 PM 88.0 °F 94.7 °F 72.0 °F 59% 29.93 in 10.0 mi ESE 11.5 mph - N/A   Scattered Clouds
6:53 PM 87.1 °F 94.5 °F 73.0 °F 63% 29.92 in 10.0 mi SE 13.8 mph 23.0 mph N/A   Clear
7:53 PM 84.9 °F 90.7 °F 72.0 °F 65% 29.95 in 10.0 mi SE 18.4 mph - N/A   Partly Cloudy
8:53 PM 82.0 °F 87.4 °F 73.0 °F 74% 29.95 in 10.0 mi SE 10.4 mph - N/A   Clear
9:53 PM 80.1 °F 84.5 °F 73.9 °F 81% 29.96 in 10.0 mi SSE 8.1 mph - N/A   Clear
10:53 PM 80.1 °F 85.1 °F 75.0 °F 85% 29.97 in 10.0 mi North - - N/A   Partly Cloudy
11:53 PM 79.0 °F - 75.0 °F 88% 29.97 in 10.0 mi North - - N/A   Clear